Lapse_Rate
6.2 6.3 6.4 6.6 6.9 6.8 7.0 6.7 6.5 6.6 6.8 6.9 7.1 7.4 7.6 8.0 8.2 8.5 8.7 8.7 8.6 8.2 8.0 7.8 7.7 7.7 7.6 7.7 7.6 7.5 7.4 7.3 7.2 7.2 7.3 7.2 7.2 7.1 7.1 7.0 6.9 6.7 6.6 6.4 6.3 6.1 6.1 6.0 5.9
6.1 6.3 6.6 6.7 6.8 6.7 6.9 6.7 6.8 6.6 6.8 7.2 7.3 7.3 7.5 7.6 7.9 8.2 8.2 8.3 8.2 8.1 8.0 7.9 7.8 7.7 7.7 7.6 7.7 7.6 7.5 7.3 7.3 7.2 7.3 7.4 7.3 7.2 7.2 7.2 7.0 6.9 6.7 6.6 6.4 6.3 6.3 6.1 6.0
6.1 6.2 6.6 6.8 6.8 6.8 6.8 6.6 6.8 7.1 7.2 7.5 7.5 7.5 7.6 7.6 7.5 7.7 7.8 7.8 8.2 8.3 8.1 8.0 7.9 7.8 7.7 7.6 7.7 7.7 7.6 7.5 7.4 7.3 7.3 7.3 7.3 7.3 7.3 7.3 7.1 7.0 6.8 6.7 6.6 6.5 6.4 6.2 6.1
6.2 6.4 6.6 6.9 7.0 6.8 6.6 6.4 6.6 7.1 7.3 7.5 7.3 7.6 7.9 8.0 7.8 7.7 7.7 7.8 7.7 7.9 8.1 8.0 7.9 7.9 7.7 7.6 7.6 7.6 7.7 7.5 7.4 7.4 7.3 7.3 7.4 7.3 7.4 7.4 7.3 7.2 7.0 6.8 6.7 6.6 6.5 6.3 6.2
6.3 6.5 6.8 7.0 7.3 6.9 6.5 6.4 6.9 7.1 7.1 7.2 7.3 7.2 7.3 7.7 7.7 7.8 7.8 7.7 7.8 7.8 7.7 7.8 7.7 7.6 7.7 7.5 7.5 7.6 7.6 7.5 7.4 7.4 7.4 7.4 7.3 7.3 7.4 7.5 7.5 7.3 7.2 7.0 6.8 6.7 6.6 6.4 6.2
6.2 6.4 6.6 7.0 7.3 7.0 6.6 6.5 6.8 6.8 6.8 7.0 6.8 7.0 7.2 7.4 7.4 7.5 7.6 7.5 7.7 7.7 7.6 7.5 7.6 7.4 7.4 7.5 7.4 7.4 7.5 7.6 7.5 7.4 7.5 7.5 7.4 7.4 7.5 7.6 7.6 7.5 7.4 7.2 7.1 6.9 6.7 6.5 6.3
6.3 6.3 6.5 6.9 7.4 7.1 6.7 6.5 6.5 6.6 6.8 6.9 6.8 6.9 7.1 7.2 7.0 7.2 7.2 7.4 7.5 7.6 7.4 7.4 7.4 7.4 7.3 7.2 7.2 7.3 7.1 7.3 7.3 7.2 7.2 7.3 7.4 7.4 7.4 7.5 7.5 7.5 7.4 7.3 7.2 7.0 6.8 6.6 6.4
6.5 6.3 6.3 6.7 7.1 6.9 6.7 6.6 6.4 6.6 7.0 6.9 7.1 6.9 7.0 7.0 7.1 7.0 7.0 7.2 7.2 7.1 7.1 7.3 7.4 7.5 7.3 7.2 7.1 7.1 7.2 6.9 6.9 6.9 6.9 6.9 7.0 7.1 7.3 7.4 7.4 7.5 7.4 7.4 7.3 7.1 7.0 6.8 6.7
6.7 6.3 6.5 6.8 6.8 6.8 6.6 6.4 6.3 6.5 7.0 7.1 6.9 6.6 6.4 6.4 6.5 6.6 6.8 6.8 6.9 7.1 7.1 7.2 7.5 7.4 7.3 7.5 7.3 7.2 7.1 7.1 7.0 6.9 6.9 6.8 6.8 6.9 7.1 7.3 7.3 7.4 7.4 7.4 7.4 7.3 7.2 6.9 6.8
7.0 6.7 6.7 6.6 6.8 6.8 6.8 6.9 6.5 6.7 6.9 7.2 7.2 6.8 6.6 6.5 6.4 6.3 6.4 6.6 6.6 6.7 6.8 7.0 7.2 7.4 7.5 7.3 7.4 7.4 7.4 7.3 7.2 6.9 6.8 6.9 6.9 6.9 6.9 7.1 7.2 7.3 7.3 7.4 7.5 7.5 7.4 7.3 6.9
7.1 7.4 7.0 7.0 6.9 7.2 7.1 7.3 6.7 6.4 7.4 7.1 6.9 7.0 6.8 6.6 6.4 6.4 6.4 6.4 6.4 6.3 6.4 6.6 6.6 6.8 7.3 7.5 7.4 7.3 7.3 7.3 7.4 7.2 6.9 6.7 6.8 6.8 6.9 6.9 7.0 7.2 7.4 7.4 7.5 7.6 7.6 7.5 7.2
7.1 7.4 7.1 7.3 7.4 7.0 7.0 7.0 7.0 6.7 7.0 6.6 6.5 6.5 6.9 6.8 6.6 6.5 6.5 6.5 6.3 6.2 6.1 6.0 6.1 6.3 6.5 7.0 7.4 7.4 7.2 7.1 7.2 7.4 7.3 6.8 6.6 6.7 6.8 6.8 6.8 6.7 6.9 7.2 7.3 7.5 7.6 7.6 7.5
6.7 7.1 7.2 7.3 7.2 7.1 7.0 6.9 6.7 7.2 6.7 6.6 6.4 6.5 6.6 6.8 6.9 6.9 6.6 6.5 6.4 6.4 6.1 6.0 5.9 5.8 5.9 6.1 6.5 7.0 7.3 7.1 7.0 7.3 7.3 7.2 6.8 6.7 6.7 6.7 6.7 6.6 6.6 6.7 7.0 7.3 7.5 7.6 7.6
6.8 6.8 7.0 7.3 7.0 6.8 6.5 6.9 6.9 6.8 6.8 6.7 6.8 6.9 6.8 6.9 7.0 6.9 6.8 6.8 6.5 6.2 6.2 6.2 5.8 6.1 6.0 5.8 5.9 6.4 6.8 6.8 7.0 7.2 7.2 7.3 7.2 6.9 6.9 6.8 6.7 6.8 6.7 6.5 6.8 7.0 7.1 7.3 7.3
7.0 6.7 6.8 6.8 6.7 6.7 6.4 6.6 6.7 6.2 6.8 7.0 6.7 6.9 7.0 6.9 6.6 6.5 6.5 6.6 6.4 6.2 6.3 6.0 6.1 5.9 5.9 5.9 6.0 6.0 6.1 6.3 6.5 6.7 6.8 6.8 6.7 6.8 6.7 6.8 6.8 6.8 6.7 6.8 6.8 6.9 7.0 7.1 7.3
6.7 6.1 6.2 6.5 6.3 6.1 5.7 5.4 6.0 6.2 6.1 6.1 6.3 6.6 6.9 7.0 6.9 7.1 7.0 6.6 6.4 6.2 6.2 6.1 6.1 6.0 5.9 5.9 5.9 6.1 6.2 6.1 6.1 5.9 6.0 6.4 6.6 6.7 6.7 6.6 6.6 6.7 6.7 6.8 6.9 6.9 6.8 6.4 6.8
6.3 6.0 5.8 5.8 6.1 5.5 5.1 4.3 5.2 5.0 5.5 5.9 6.1 6.2 6.3 6.4 6.7 6.9 6.9 6.9 6.6 6.3 6.1 6.0 5.9 6.0 6.0 6.1 6.1 6.0 6.3 6.2 6.1 6.0 6.1 6.0 6.0 6.2 6.4 6.4 6.5 6.5 6.5 6.7 6.7 6.3 6.2 6.3 6.6
6.1 5.5 5.0 4.9 6.0 5.4 4.9 5.1 5.0 5.0 5.6 5.7 5.8 6.0 6.2 6.1 6.2 6.4 6.4 6.3 6.2 6.0 5.9 5.8 5.6 5.9 6.4 6.7 6.7 6.5 6.3 6.4 6.3 6.1 6.1 6.3 6.4 6.2 6.3 6.3 6.4 6.4 6.3 6.4 6.3 5.8 5.9 5.8 6.1
5.2 4.9 4.7 5.4 5.4 4.4 5.1 4.9 4.7 5.4 5.5 5.2 5.6 5.9 5.8 5.8 5.8 5.9 5.8 5.8 5.8 6.0 6.0 5.8 5.9 5.8 6.1 6.9 7.3 7.1 6.9 7.1 6.7 6.4 6.1 6.3 6.4 6.5 6.4 6.4 6.5 6.3 6.2 6.1 6.3 6.3 6.1 6.1 6.2
5.1 4.8 4.9 4.9 5.1 4.6 4.8 4.4 4.8 4.8 4.9 4.9 5.3 5.5 5.7 5.8 5.7 5.5 5.5 5.4 5.4 5.9 6.2 6.1 5.9 6.2 6.6 6.9 7.6 7.6 7.1 7.4 7.6 7.1 6.7 6.4 6.3 6.3 6.3 6.3 6.3 6.4 6.5 6.4 6.4 6.3 6.3 6.3 6.6
5.4 5.0 5.2 4.7 4.9 4.9 4.3 4.5 4.6 4.7 4.7 5.0 5.4 5.3 5.2 5.2 5.3 5.4 5.2 5.1 5.3 5.9 6.2 6.4 6.7 6.8 6.8 7.4 7.6 8.1 7.9 8.1 7.9 7.8 7.4 6.8 6.6 6.5 6.5 6.4 6.4 6.4 6.4 6.7 6.6 6.6 6.6 6.4 6.4
4.9 5.8 5.1 4.8 4.6 4.5 4.4 3.8 4.3 4.5 4.6 4.9 5.5 6.0 5.7 5.3 5.3 5.6 4.9 5.1 5.6 5.8 6.3 6.7 6.8 6.8 6.6 7.3 7.5 7.8 7.7 8.1 8.3 8.0 7.7 7.2 6.9 6.6 6.6 6.7 6.6 6.4 6.5 6.7 6.8 6.8 6.7 6.6 6.5
5.0 5.2 5.2 5.1 4.8 4.7 4.4 4.6 4.6 4.5 4.8 4.6 4.4 4.7 4.7 5.0 5.3 5.5 5.5 5.5 5.5 6.0 6.3 6.5 6.6 6.9 5.2 6.6 7.1 7.5 7.6 7.9 8.1 8.0 7.7 7.5 7.3 6.9 6.7 6.6 6.8 6.7 6.6 6.7 6.9 7.0 6.9 6.9 6.8
5.3 5.3 5.3 5.0 4.9 4.2 5.1 5.6 4.7 4.6 4.1 4.4 4.7 4.4 4.7 4.8 5.2 5.4 5.4 5.9 6.0 6.4 6.4 6.5 6.6 6.5 6.7 5.6 6.5 7.1 7.3 7.8 7.8 8.0 8.0 7.8 7.6 7.5 6.9 6.8 6.8 6.8 6.9 6.9 6.9 7.0 7.0 6.8 6.8
5.7 5.5 5.3 4.4 4.2 4.8 5.2 5.1 5.2 4.5 4.1 4.8 5.0 4.6 4.8 4.9 5.1 5.2 5.3 5.5 5.7 6.0 6.1 6.3 6.6 6.2 5.7 5.6 6.3 6.7 7.1 7.7 7.7 7.8 8.0 8.0 7.7 8.0 7.6 7.2 6.7 6.6 6.9 7.0 7.1 7.0 7.1 7.1 7.0
5.7 5.8 6.1 5.6 4.7 4.9 5.5 5.1 5.0 5.0 4.5 5.4 5.1 5.1 5.3 5.6 5.7 5.4 5.1 5.2 5.3 5.5 5.1 5.4 5.1 4.8 5.3 5.8 5.6 6.3 7.0 7.2 7.5 7.8 8.0 7.8 7.7 7.8 7.8 7.9 7.6 7.0 6.9 6.9 6.9 6.9 6.8 7.0 7.0
5.6 5.9 6.6 6.5 6.0 5.8 6.2 5.6 5.7 5.1 5.5 5.6 5.6 5.9 5.9 5.7 5.7 5.7 6.0 5.9 5.8 5.8 5.5 4.8 5.2 5.4 5.9 6.2 6.4 6.9 7.3 7.5 7.7 7.9 8.1 7.9 7.9 8.0 8.1 7.9 7.7 7.4 7.3 7.1 7.0 6.9 6.8 6.9 7.0
6.6 6.8 6.4 6.6 7.0 6.6 6.3 5.9 5.8 6.5 6.5 6.1 6.2 6.3 6.6 6.5 6.5 6.3 6.2 6.4 6.0 6.0 5.9 5.9 5.5 5.8 5.9 6.1 6.3 6.4 6.9 7.4 7.4 7.6 7.4 7.6 7.5 7.5 7.4 7.9 8.1 7.6 7.4 7.2 7.2 7.2 6.8 6.9 6.8
7.1 6.7 6.8 7.1 6.7 6.4 6.3 6.3 7.1 7.0 6.8 6.7 6.7 6.9 7.0 6.9 6.6 6.4 6.4 6.2 6.3 6.3 6.3 6.2 6.5 6.1 5.9 6.0 6.5 6.6 6.7 6.8 6.7 7.2 6.9 6.8 6.6 6.5 6.7 7.3 7.7 7.5 7.3 7.5 7.4 7.3 7.3 7.1 7.0
7.2 7.1 7.1 6.8 6.7 6.3 6.1 6.3 7.1 6.8 6.9 7.0 7.1 6.9 7.1 7.2 6.9 6.6 6.4 6.4 6.5 6.3 6.2 6.4 6.7 6.4 6.0 5.8 6.0 6.1 6.3 6.4 6.6 6.4 6.5 6.2 6.1 6.2 6.5 6.7 7.0 7.2 7.3 7.3 7.2 7.1 7.1 6.9 6.6
Wind_Speed
5 3 3 4 4 5 3 4 2 5 8 3 5 3 5 4 5 4 4 4 5 6 9 13 17 14 13 11 10 10 12 16 17 19 21 22 23 24 24 23 22 20 19 20 20 17 13 11 11
3 1 4 2 4 2 4 3 5 3 7 8 3 4 0 2 1 1 0 5 7 7 9 8 10 12 14 14 13 10 9 13 17 17 19 22 22 22 23 22 21 20 20 20 19 18 15 12 11
2 4 4 4 3 4 3 1 6 7 8 4 2 3 4 3 2 4 3 7 7 6 10 13 18 15 13 13 14 13 12 11 13 17 16 16 19 21 22 22 21 20 20 19 19 18 16 15 13
3 4 4 4 4 4 2 6 3 11 9 9 7 2 3 4 0 2 5 5 6 4 7 12 16 16 15 15 13 13 12 14 13 14 17 17 18 19 21 21 21 20 19 19 18 17 17 16 14
4 3 4 2 3 3 5 4 4 6 4 6 9 8 7 6 7 5 7 5 5 5 5 8 15 16 16 16 17 17 15 15 15 15 15 17 18 19 19 20 21 20 19 18 17 17 17 17 15
4 3 4 3 3 3 6 4 4 4 4 10 5 7 4 8 7 5 4 3 4 6 6 9 13 15 17 15 15 16 17 17 16 16 16 16 17 19 20 21 21 20 20 19 18 18 17 16 15
6 4 3 2 4 2 3 5 4 5 7 6 6 4 6 5 4 6 6 3 4 6 6 7 13 13 15 17 18 17 15 15 15 15 15 15 17 19 19 20 20 20 21 20 19 18 17 17 16
5 4 3 4 3 4 1 2 5 5 6 6 4 4 6 6 7 5 6 4 4 3 4 5 7 11 12 10 15 17 17 16 15 14 15 16 16 17 17 18 18 19 21 20 19 19 19 17 17
3 4 3 5 4 4 2 6 3 4 4 4 3 2 6 9 4 3 4 4 3 4 6 5 6 6 7 9 9 11 13 15 15 14 14 13 9 10 11 12 15 19 21 21 20 20 19 18 17
4 4 8 5 4 2 5 3 4 5 8 4 2 4 5 9 7 8 7 8 5 6 7 6 6 6 6 6 7 9 8 7 9 10 11 11 10 9 9 11 16 18 19 20 20 19 18 16 12
3 6 5 4 4 3 3 6 2 2 5 2 9 13 10 6 7 8 8 7 10 7 4 7 6 5 6 4 5 5 5 6 7 9 9 9 8 7 8 8 8 10 14 10 12 12 11 10 10
3 4 1 3 4 5 6 4 4 7 8 4 7 9 8 11 10 9 10 10 9 7 5 4 5 5 5 3 3 3 3 4 3 6 8 5 2 3 3 4 8 10 10 8 9 8 9 10 11
3 3 6 8 7 6 5 6 7 8 9 7 7 7 8 9 9 9 8 9 9 8 3 7 6 5 4 4 3 3 3 3 3 3 5 5 3 4 3 3 5 7 9 10 8 8 8 8 9
1 4 7 6 10 6 5 5 1 1 4 2 1 5 7 8 9 8 10 11 7 6 6 4 6 6 8 5 6 4 4 5 3 2 2 4 4 3 3 3 4 5 8 10 11 9 9 9 8
3 5 7 5 3 5 3 5 2 2 7 10 9 7 9 8 8 8 10 10 5 7 8 8 6 4 6 6 6 4 4 7 4 5 8 7 8 4 4 5 6 6 9 10 10 8 7 7 6
4 4 4 4 5 2 5 5 6 5 12 16 14 13 13 12 8 9 9 9 10 11 12 12 10 9 7 6 5 4 4 4 3 6 7 9 8 7 1 2 5 6 9 7 8 8 8 8 8
5 2 2 8 5 4 5 2 6 16 16 11 14 9 8 8 10 12 14 13 13 12 12 12 11 11 8 5 5 5 5 5 5 8 8 10 10 10 4 3 4 5 5 6 8 8 8 8 7
4 3 3 5 6 8 13 13 7 9 9 13 14 9 8 7 9 12 15 15 15 14 13 12 10 14 11 5 3 3 5 4 6 5 7 10 11 11 6 4 5 4 5 5 5 7 7 4 5
4 3 3 4 10 7 11 13 9 9 8 11 12 8 4 11 11 15 16 15 15 16 15 15 14 14 11 4 3 3 3 2 3 4 7 8 8 8 5 4 4 4 4 5 8 4 7 8 10
6 2 6 6 7 6 10 10 9 6 6 10 13 13 9 11 14 15 16 16 16 15 15 16 15 14 11 8 5 3 3 2 3 3 4 7 6 6 5 4 4 4 4 5 6 6 2 5 7
5 5 4 7 5 5 8 5 5 5 15 15 17 16 17 14 14 16 17 16 14 16 15 14 14 16 14 15 10 6 3 2 2 6 5 7 9 7 5 4 4 5 4 4 5 6 6 5 4
3 6 7 5 1 3 3 6 4 3 12 14 15 17 15 16 16 16 16 17 17 14 12 12 13 16 14 14 10 8 4 4 5 5 4 6 9 9 10 7 7 5 3 5 6 5 5 5 7
7 4 4 4 3 2 2 2 3 6 10 12 14 15 16 16 16 16 16 14 13 13 12 12 12 14 11 14 12 8 7 6 5 5 8 7 7 8 10 9 9 8 6 6 7 7 8 5 8
5 4 3 3 3 4 8 8 4 4 3 9 10 11 10 11 10 11 10 11 11 10 11 11 14 13 15 14 14 13 12 11 8 9 8 8 7 8 9 10 9 9 8 8 8 8 8 8 9
3 5 3 3 1 5 1 2 2 3 4 8 9 7 6 6 6 5 8 10 9 11 11 10 12 12 13 13 14 15 13 11 10 10 8 11 8 7 9 11 10 9 10 10 10 9 10 10 9
5 8 5 5 3 3 2 5 2 6 7 6 6 6 5 5 5 5 5 4 7 9 11 12 14 14 13 13 12 11 12 8 8 10 9 7 7 8 12 11 11 11 12 11 10 8 8 11 10
4 6 2 1 1 0 4 1 3 8 7 6 6 4 3 4 6 7 7 8 8 9 10 9 11 11 11 9 8 10 11 10 10 12 10 8 10 10 11 11 11 11 11 12 11 8 11 9 11
6 7 3 1 3 5 4 4 5 14 12 11 9 6 3 5 6 6 6 8 9 9 8 9 10 10 10 10 9 9 11 11 11 10 12 12 10 11 11 11 11 11 11 11 11 9 10 11 10
3 3 2 3 3 4 2 5 5 17 16 14 10 7 6 4 4 5 4 5 6 7 8 9 9 10 9 9 9 9 11 11 10 9 10 10 11 12 12 12 12 12 12 12 11 12 12 13 12
3 5 6 4 4 4 3 5 4 10 12 12 9 8 7 6 3 2 4 6 7 8 9 10 9 9 10 10 10 11 11 11 10 12 12 12 11 11 12 12 13 13 13 12 13 13 13 13 12
Wind_Direction
333 13 101 41 55 65 284 277 259 312 334 241 271 204 193 145 161 205 283 289 124 134 151 158 156 152 147 143 136 137 137 134 132 136 140 144 148 150 150 152 154 157 159 158 162 160 154 140 132
334 140 49 83 84 51 277 291 310 261 255 284 273 132 102 255 109 251 289 169 148 141 139 145 162 158 156 152 147 147 145 145 142 142 145 149 150 150 151 153 156 160 164 166 168 168 162 153 151
168 35 78 89 109 184 220 269 292 300 319 306 301 56 173 180 182 191 249 139 127 146 160 166 170 170 165 159 159 158 156 156 154 151 151 153 151 154 156 157 159 162 164 167 172 171 163 168 166
44 17 37 92 211 254 217 290 321 345 354 28 321 350 0 349 283 211 110 119 117 142 165 169 175 174 172 170 169 167 167 169 167 162 161 162 162 163 162 161 163 166 169 173 176 172 167 172 173
34 51 57 12 251 265 259 275 358 359 339 331 341 319 315 352 326 88 96 120 148 171 170 175 182 181 182 181 176 175 176 179 180 178 173 171 170 168 168 167 168 171 173 176 177 173 174 175 177
46 90 69 254 248 239 278 285 341 6 322 321 23 337 310 329 360 20 84 149 194 179 167 180 195 193 188 189 191 189 185 185 188 189 185 180 177 175 173 175 174 174 176 178 179 181 179 178 180
112 88 204 239 260 296 200 336 44 335 339 331 312 38 296 346 327 349 337 280 217 177 173 186 189 194 201 198 196 201 204 201 199 197 195 192 189 186 183 182 181 180 181 182 184 184 184 182 185
106 91 127 259 277 277 281 38 328 3 306 311 355 14 326 298 340 24 4 331 323 293 232 205 190 184 189 201 208 200 203 212 216 212 208 205 204 203 198 192 190 189 188 188 189 188 190 190 190
121 71 189 229 182 247 330 8 313 285 304 325 287 33 299 326 280 341 342 319 307 265 229 212 199 192 193 193 205 213 210 205 213 218 219 217 214 217 217 210 206 201 199 197 195 196 196 194 195
97 134 218 221 198 246 324 355 321 345 311 299 317 295 308 309 330 326 294 270 253 253 240 209 202 192 181 184 193 194 204 219 203 205 211 207 210 212 216 217 219 217 213 211 207 204 205 200 190
168 189 203 256 254 25 271 299 163 239 275 259 308 309 323 298 309 293 283 253 245 239 243 208 193 188 182 181 178 188 188 187 218 210 199 210 212 208 209 222 226 223 221 215 216 212 202 194 191
291 247 263 281 331 330 306 288 295 192 256 289 295 293 307 318 314 308 293 282 280 260 264 195 197 186 190 166 184 169 180 190 188 192 196 180 188 185 201 218 221 226 223 210 207 210 207 197 198
251 318 330 301 291 260 257 247 253 251 269 306 317 323 312 313 312 306 286 283 273 252 226 202 171 176 164 154 158 172 187 180 173 190 208 188 194 211 205 204 211 215 218 217 218 217 219 218 205
6 290 285 281 286 267 257 286 72 347 37 56 354 281 268 282 297 301 306 299 255 215 169 139 127 140 124 113 105 93 76 39 54 111 159 236 231 238 220 229 221 217 205 213 215 215 217 222 219
294 328 318 278 308 296 353 344 189 64 0 353 327 284 295 296 294 304 305 318 12 31 17 35 48 53 91 106 100 87 81 80 62 53 21 33 76 39 349 252 239 236 220 221 219 211 202 207 206
4 47 350 307 336 305 69 281 303 333 347 330 325 310 312 317 7 6 20 55 44 52 34 25 15 8 40 65 60 65 48 72 66 46 42 34 18 10 314 345 334 279 221 214 216 214 212 206 190
8 268 319 322 337 325 54 252 301 327 315 303 294 288 292 317 26 30 31 30 44 39 40 28 16 6 358 52 79 76 62 57 39 49 38 23 23 17 1 339 290 313 309 239 226 205 205 212 206
185 191 262 266 300 329 303 290 286 279 298 289 294 293 300 69 43 40 39 33 30 28 31 30 24 12 350 347 22 82 81 68 50 47 39 30 17 4 358 337 345 331 312 287 249 239 200 214 227
107 158 240 265 279 300 276 290 297 282 298 302 305 297 19 75 63 46 37 31 28 27 27 21 21 12 8 348 344 352 21 44 64 44 34 40 12 356 337 344 331 335 324 307 312 252 230 239 229
223 259 270 283 271 299 292 306 272 278 355 28 11 349 85 73 56 47 38 32 29 24 21 17 13 11 6 355 328 330 327 354 80 40 37 22 357 340 347 325 318 326 324 312 304 307 237 222 222
186 197 207 247 314 292 324 316 84 70 35 30 37 39 56 58 57 49 40 29 24 22 18 16 15 15 2 355 345 349 350 333 335 6 16 354 349 330 320 312 317 322 321 308 296 294 295 275 199
253 205 210 246 303 272 24 288 95 17 29 28 50 52 49 46 48 44 38 29 22 8 15 16 6 39 356 358 342 360 357 354 4 344 352 349 355 348 339 336 334 318 306 296 295 286 280 283 263
228 174 181 154 200 349 227 273 186 58 18 26 59 54 48 45 41 34 32 29 19 6 11 11 9 23 1 6 346 1 334 13 346 354 345 360 346 345 347 341 339 327 315 294 278 278 281 262 264
127 94 73 77 127 241 213 188 303 37 14 71 64 58 56 57 48 44 42 37 12 5 13 16 11 6 13 1 352 352 349 4 356 355 352 353 347 340 346 341 329 321 311 310 302 283 263 263 265
130 122 306 320 209 232 126 177 305 111 116 130 126 124 114 111 93 63 26 20 27 11 6 21 15 12 5 6 351 352 347 1 348 356 357 349 344 339 342 333 328 321 310 302 292 282 274 264 253
180 176 207 246 210 234 324 232 237 146 133 130 112 102 91 66 49 40 36 51 20 20 9 11 7 7 358 3 348 336 348 355 357 359 357 347 337 336 332 331 317 315 316 306 300 287 277 266 251
189 203 192 258 167 266 212 223 185 170 160 169 151 144 107 55 42 27 16 25 10 24 20 6 15 10 355 347 339 344 354 356 4 3 358 347 340 337 337 322 321 324 322 317 310 307 296 291 272
167 162 102 198 243 232 244 236 221 190 190 190 182 171 83 55 36 26 7 17 10 13 4 9 20 10 344 351 353 353 353 4 5 1 0 348 344 342 339 340 337 333 335 321 330 316 307 292 296
138 199 139 155 184 225 247 249 230 189 190 190 189 148 135 100 46 6 4 13 18 7 7 10 9 4 354 352 353 353 3 5 2 0 355 351 349 348 345 349 349 349 343 351 335 323 316 313 303
181 214 173 188 217 223 168 267 151 162 181 181 170 149 128 106 99 24 3 21 12 16 7 1 5 4 359 358 1 11 4 3 13 10 5 1 354 356 356 356 2 359 357 350 344 334 328 314 310